EZY8682 EGKK-EHAM

Flight info

Callsign EZY8682
Flight time 0h 43m
Altitude 29000
Route FRANE M604 GASBA M197 REDFA
Aircraft A320/M-SDE3FGHIRWY/LB1

Departure

Time 2026-05-06 18:53
Airport London Gatwick Airport (EGKK)

Arrival

Time 2026-05-06 19:37
Airport Amsterdam Airport Schiphol (EHAM)
Time Latitude Longitude Altitude Speed Heading
2026-05-06 18:00 51.15505 -0.16846 205 ft 0 kts 348°
2026-05-06 18:32 51.15498 -0.16844 209 ft 4 kts 346°
2026-05-06 18:33 51.15473 -0.16830 217 ft 4 kts 327°
2026-05-06 18:33 51.15456 -0.16803 210 ft 4 kts 278°
2026-05-06 18:33 51.15455 -0.16788 210 ft 0 kts 258°
2026-05-06 18:38 51.15445 -0.16856 214 ft 0 kts 257°
2026-05-06 18:38 51.15441 -0.16888 205 ft 9 kts 258°
2026-05-06 18:38 51.15426 -0.16997 209 ft 10 kts 258°
2026-05-06 18:39 51.15412 -0.17100 210 ft 9 kts 257°
2026-05-06 18:39 51.15390 -0.17187 207 ft 8 kts 248°
2026-05-06 18:39 51.15374 -0.17267 214 ft 7 kts 253°
2026-05-06 18:40 51.15300 -0.17440 207 ft 13 kts 258°
2026-05-06 18:40 51.15280 -0.17609 206 ft 15 kts 258°
2026-05-06 18:40 51.15258 -0.17767 208 ft 14 kts 257°
2026-05-06 18:40 51.15238 -0.17913 205 ft 13 kts 258°
2026-05-06 18:41 51.15222 -0.18023 205 ft 9 kts 257°
2026-05-06 18:41 51.15206 -0.18139 205 ft 13 kts 257°
2026-05-06 18:41 51.15189 -0.18273 205 ft 12 kts 258°
2026-05-06 18:41 51.15175 -0.18398 209 ft 11 kts 264°
2026-05-06 18:42 51.15161 -0.18520 213 ft 15 kts 257°
2026-05-06 18:42 51.15131 -0.18734 206 ft 20 kts 258°
2026-05-06 18:42 51.15102 -0.18947 209 ft 19 kts 258°
2026-05-06 18:42 51.15076 -0.19141 207 ft 17 kts 258°
2026-05-06 18:43 51.15051 -0.19318 212 ft 16 kts 257°
2026-05-06 18:43 51.15029 -0.19478 207 ft 14 kts 257°
2026-05-06 18:43 51.15006 -0.19643 205 ft 21 kts 258°
2026-05-06 18:43 51.14973 -0.19882 214 ft 21 kts 257°
2026-05-06 18:44 51.14942 -0.20111 216 ft 20 kts 257°
2026-05-06 18:44 51.14912 -0.20320 212 ft 18 kts 257°
2026-05-06 18:44 51.14886 -0.20511 205 ft 17 kts 257°
2026-05-06 18:44 51.14862 -0.20686 207 ft 15 kts 258°
2026-05-06 18:45 51.14840 -0.20847 212 ft 14 kts 257°
2026-05-06 18:45 51.14819 -0.20992 207 ft 13 kts 257°
2026-05-06 18:45 51.14800 -0.21127 205 ft 12 kts 254°
2026-05-06 18:45 51.14775 -0.21247 205 ft 11 kts 257°
2026-05-06 18:46 51.14758 -0.21360 205 ft 10 kts 252°
2026-05-06 18:46 51.14733 -0.21403 215 ft 0 kts 197°
2026-05-06 18:49 51.14730 -0.21404 215 ft 3 kts 192°
2026-05-06 18:49 51.14666 -0.21370 214 ft 10 kts 137°
2026-05-06 18:49 51.14615 -0.21330 208 ft 0 kts 167°
2026-05-06 18:51 51.14600 -0.21324 205 ft 6 kts 166°
2026-05-06 18:51 51.14542 -0.21276 210 ft 12 kts 136°
2026-05-06 18:52 51.14522 -0.21156 206 ft 6 kts 79°
2026-05-06 18:52 51.14523 -0.21153 206 ft 0 kts 79°
2026-05-06 18:52 51.14523 -0.21152 206 ft 1 kts 79°
2026-05-06 18:52 51.14559 -0.20875 212 ft 63 kts 77°
2026-05-06 18:53 51.14706 -0.19836 209 ft 126 kts 77°
2026-05-06 18:53 51.14927 -0.18244 458 ft 153 kts 78°
2026-05-06 18:53 51.15148 -0.16582 1256 ft 154 kts 74°
2026-05-06 18:53 51.15394 -0.14816 1764 ft 173 kts 75°
2026-05-06 18:54 51.15673 -0.12829 2149 ft 195 kts 75°
2026-05-06 18:54 51.15981 -0.10601 2545 ft 214 kts 75°
2026-05-06 18:54 51.16312 -0.08196 3071 ft 233 kts 75°
2026-05-06 18:54 51.16674 -0.05567 3673 ft 253 kts 76°
2026-05-06 18:55 51.16911 -0.02717 3958 ft 264 kts 89°
2026-05-06 18:55 51.16861 0.00211 3990 ft 264 kts 90°
2026-05-06 18:55 51.16800 0.03157 4166 ft 271 kts 91°
2026-05-06 18:55 51.16734 0.06184 4853 ft 275 kts 91°
2026-05-06 18:56 51.16671 0.09206 4970 ft 272 kts 91°
2026-05-06 18:56 51.16611 0.12211 4985 ft 271 kts 91°
2026-05-06 18:56 51.16555 0.15212 4986 ft 270 kts 91°
2026-05-06 18:56 51.16527 0.18206 4986 ft 270 kts 90°
2026-05-06 18:57 51.16530 0.21195 4986 ft 270 kts 89°
2026-05-06 18:57 51.16543 0.24201 5038 ft 273 kts 89°
2026-05-06 18:57 51.16558 0.27235 5906 ft 274 kts 89°
2026-05-06 18:57 51.16570 0.30267 6960 ft 275 kts 89°
2026-05-06 18:58 51.16580 0.33339 7857 ft 280 kts 88°
2026-05-06 18:58 51.16587 0.36486 8726 ft 287 kts 88°
2026-05-06 18:58 51.16591 0.39687 9654 ft 291 kts 88°
2026-05-06 18:58 51.16594 0.42941 10487 ft 296 kts 88°
2026-05-06 18:59 51.16595 0.46251 11303 ft 301 kts 88°
2026-05-06 18:59 51.16846 0.49572 12121 ft 304 kts 72°
2026-05-06 18:59 51.17768 0.52573 12935 ft 305 kts 51°
2026-05-06 18:59 51.19284 0.54920 13729 ft 305 kts 32°
2026-05-06 19:00 51.21212 0.56312 14435 ft 306 kts 12°
2026-05-06 19:00 51.23296 0.57083 15168 ft 309 kts 11°
2026-05-06 19:00 51.25400 0.57856 15901 ft 312 kts 11°
2026-05-06 19:00 51.26808 0.58377 16384 ft 315 kts 11°
2026-05-06 19:01 51.29692 0.59449 16918 ft 320 kts 11°
2026-05-06 19:01 51.31856 0.60259 16986 ft 319 kts 11°
2026-05-06 19:01 51.34018 0.61074 17015 ft 319 kts 11°
2026-05-06 19:01 51.36179 0.61886 17009 ft 319 kts 11°
2026-05-06 19:02 51.38336 0.62691 17010 ft 318 kts 11°
2026-05-06 19:02 51.40548 0.63516 17010 ft 339 kts 11°
2026-05-06 19:02 51.42889 0.64393 17006 ft 357 kts 11°
2026-05-06 19:02 51.45329 0.65318 17009 ft 362 kts 12°
2026-05-06 19:03 51.47782 0.66254 17010 ft 363 kts 12°
2026-05-06 19:03 51.50240 0.67192 17010 ft 363 kts 12°
2026-05-06 19:03 51.52698 0.68132 17012 ft 363 kts 12°
2026-05-06 19:03 51.55156 0.69074 17004 ft 363 kts 12°
2026-05-06 19:04 51.57616 0.70014 17018 ft 363 kts 12°
2026-05-06 19:04 51.60075 0.70950 17011 ft 363 kts 12°
2026-05-06 19:04 51.62532 0.71884 17009 ft 363 kts 12°
2026-05-06 19:04 51.64991 0.72820 17009 ft 363 kts 12°
2026-05-06 19:05 51.67448 0.73755 17009 ft 363 kts 12°
2026-05-06 19:05 51.69905 0.74693 17010 ft 363 kts 12°
2026-05-06 19:05 51.72363 0.75633 17007 ft 363 kts 12°
2026-05-06 19:05 51.74821 0.76579 17010 ft 363 kts 12°
2026-05-06 19:06 51.77246 0.77726 17012 ft 364 kts 20°
2026-05-06 19:06 51.79512 0.79569 17011 ft 366 kts 31°
2026-05-06 19:06 51.80889 0.81149 17021 ft 368 kts 37°
2026-05-06 19:06 51.83305 0.85073 17016 ft 370 kts 50°
2026-05-06 19:07 51.84279 0.87337 17016 ft 371 kts 58°
2026-05-06 19:07 51.85386 0.91111 17016 ft 373 kts 70°
2026-05-06 19:07 51.86136 0.95131 17019 ft 374 kts 72°
2026-05-06 19:07 51.86863 0.99166 17013 ft 374 kts 73°
2026-05-06 19:08 51.87595 1.03216 17014 ft 376 kts 72°
2026-05-06 19:08 51.88324 1.07277 17016 ft 376 kts 73°
2026-05-06 19:08 51.89053 1.11342 17015 ft 376 kts 72°
2026-05-06 19:08 51.89784 1.15401 17013 ft 376 kts 72°
2026-05-06 19:09 51.90515 1.19461 17015 ft 376 kts 73°
2026-05-06 19:09 51.91243 1.23535 17019 ft 376 kts 73°
2026-05-06 19:09 51.91967 1.27601 17018 ft 376 kts 73°
2026-05-06 19:09 51.92693 1.31668 17017 ft 376 kts 73°
2026-05-06 19:10 51.93419 1.35735 17020 ft 376 kts 73°
2026-05-06 19:10 51.94144 1.39803 17013 ft 376 kts 73°
2026-05-06 19:10 51.94869 1.43873 17012 ft 376 kts 73°
2026-05-06 19:10 51.95590 1.47945 17012 ft 376 kts 72°
2026-05-06 19:11 51.96310 1.52026 17014 ft 377 kts 73°
2026-05-06 19:11 51.97030 1.56118 17014 ft 378 kts 73°
2026-05-06 19:11 51.97751 1.60215 17010 ft 377 kts 73°
2026-05-06 19:11 51.98468 1.64309 17008 ft 378 kts 73°
2026-05-06 19:12 51.99184 1.68414 17007 ft 378 kts 73°
2026-05-06 19:12 51.99870 1.72526 17013 ft 378 kts 75°
2026-05-06 19:12 52.00520 1.76655 17008 ft 378 kts 75°
2026-05-06 19:12 52.01152 1.80797 17007 ft 378 kts 75°
2026-05-06 19:13 52.01780 1.84949 17007 ft 378 kts 75°
2026-05-06 19:13 52.02406 1.89079 17008 ft 378 kts 75°
2026-05-06 19:13 52.03035 1.93216 17016 ft 378 kts 75°
2026-05-06 19:13 52.03670 1.97358 17002 ft 379 kts 75°
2026-05-06 19:14 52.04307 2.01511 17002 ft 379 kts 75°
2026-05-06 19:14 52.04944 2.05661 17003 ft 379 kts 75°
2026-05-06 19:14 52.05582 2.09824 17004 ft 380 kts 75°
2026-05-06 19:14 52.06215 2.13981 17003 ft 379 kts 75°
2026-05-06 19:15 52.06849 2.18143 17000 ft 380 kts 75°
2026-05-06 19:15 52.07485 2.22306 17002 ft 378 kts 74°
2026-05-06 19:15 52.08371 2.26320 17003 ft 378 kts 65°
2026-05-06 19:15 52.09412 2.30188 17005 ft 382 kts 65°
2026-05-06 19:16 52.10504 2.34262 17004 ft 392 kts 65°
2026-05-06 19:16 52.11581 2.38292 16994 ft 395 kts 65°
2026-05-06 19:16 52.12687 2.42440 16999 ft 395 kts 65°
2026-05-06 19:16 52.13764 2.46488 16999 ft 396 kts 65°
2026-05-06 19:17 52.14856 2.50598 16996 ft 396 kts 65°
2026-05-06 19:17 52.15955 2.54719 17000 ft 397 kts 65°
2026-05-06 19:17 52.17054 2.58843 16997 ft 396 kts 65°
2026-05-06 19:17 52.18160 2.62999 16995 ft 409 kts 65°
2026-05-06 19:18 52.19315 2.67343 17001 ft 429 kts 65°
2026-05-06 19:18 52.20519 2.71892 16998 ft 441 kts 65°
2026-05-06 19:18 52.21736 2.76519 16995 ft 445 kts 66°
2026-05-06 19:18 52.22951 2.81159 16994 ft 445 kts 66°
2026-05-06 19:19 52.24167 2.85813 16995 ft 446 kts 66°
2026-05-06 19:19 52.25378 2.90450 16849 ft 443 kts 65°
2026-05-06 19:19 52.26587 2.95080 16584 ft 443 kts 66°
2026-05-06 19:19 52.27791 2.99693 16319 ft 442 kts 66°
2026-05-06 19:20 52.28995 3.04313 16057 ft 442 kts 66°
2026-05-06 19:20 52.30192 3.08914 15806 ft 439 kts 65°
2026-05-06 19:20 52.31384 3.13504 15549 ft 438 kts 66°
2026-05-06 19:20 52.32567 3.18070 15294 ft 435 kts 66°
2026-05-06 19:21 52.33741 3.22607 15045 ft 427 kts 65°
2026-05-06 19:21 52.34874 3.26997 14796 ft 411 kts 66°
2026-05-06 19:21 52.35964 3.31237 14552 ft 398 kts 65°
2026-05-06 19:21 52.37016 3.35340 14309 ft 385 kts 65°
2026-05-06 19:22 52.38036 3.39323 14039 ft 375 kts 65°
2026-05-06 19:22 52.39031 3.43212 13530 ft 362 kts 66°
2026-05-06 19:22 52.39979 3.46930 12996 ft 346 kts 65°
2026-05-06 19:22 52.40884 3.50495 12472 ft 332 kts 65°
2026-05-06 19:23 52.41752 3.53920 11958 ft 320 kts 66°
2026-05-06 19:23 52.42592 3.57229 11455 ft 310 kts 65°
2026-05-06 19:23 52.43406 3.60437 10945 ft 301 kts 66°
2026-05-06 19:23 52.44203 3.63572 10448 ft 296 kts 66°
2026-05-06 19:24 52.44991 3.66663 9951 ft 293 kts 66°
2026-05-06 19:24 52.45768 3.69723 9452 ft 289 kts 66°
2026-05-06 19:24 52.46534 3.72748 9243 ft 286 kts 66°
2026-05-06 19:24 52.47291 3.75751 9036 ft 284 kts 67°
2026-05-06 19:25 52.48040 3.78731 8800 ft 282 kts 67°
2026-05-06 19:25 52.48783 3.81694 8602 ft 280 kts 66°
2026-05-06 19:25 52.49508 3.84592 8392 ft 277 kts 66°
2026-05-06 19:25 52.50237 3.87510 8184 ft 276 kts 67°
2026-05-06 19:26 52.50964 3.90412 7983 ft 273 kts 67°
2026-05-06 19:26 52.51520 3.93379 7777 ft 271 kts 78°
2026-05-06 19:26 52.51731 3.96453 7571 ft 271 kts 88°
2026-05-06 19:26 52.51598 3.99544 7357 ft 271 kts 98°
2026-05-06 19:27 52.51133 4.02536 7165 ft 270 kts 107°
2026-05-06 19:27 52.50439 4.05395 7012 ft 269 kts 109°
2026-05-06 19:27 52.49741 4.08239 6973 ft 268 kts 109°
2026-05-06 19:27 52.49046 4.11089 6974 ft 269 kts 109°
2026-05-06 19:28 52.48349 4.13947 6925 ft 269 kts 109°
2026-05-06 19:28 52.47619 4.16765 6807 ft 269 kts 115°
2026-05-06 19:28 52.46395 4.19098 6667 ft 274 kts 139°
2026-05-06 19:28 52.44822 4.20885 6552 ft 275 kts 141°
2026-05-06 19:29 52.43296 4.22768 6426 ft 274 kts 140°
2026-05-06 19:29 52.41804 4.24715 6297 ft 274 kts 139°
2026-05-06 19:29 52.40327 4.26675 6159 ft 273 kts 139°
2026-05-06 19:29 52.38852 4.28633 6029 ft 273 kts 139°
2026-05-06 19:30 52.37375 4.30578 5764 ft 272 kts 139°
2026-05-06 19:30 52.35902 4.32508 5498 ft 270 kts 139°
2026-05-06 19:30 52.34437 4.34416 5247 ft 269 kts 139°
2026-05-06 19:30 52.32971 4.36317 4923 ft 269 kts 139°
2026-05-06 19:31 52.31515 4.38202 4478 ft 264 kts 139°
2026-05-06 19:31 52.30102 4.40025 4005 ft 254 kts 138°
2026-05-06 19:31 52.27424 4.43472 3079 ft 237 kts 139°
2026-05-06 19:32 52.26150 4.45108 2686 ft 230 kts 137°
2026-05-06 19:32 52.24900 4.46716 2343 ft 228 kts 137°
2026-05-06 19:32 52.23662 4.48306 2100 ft 225 kts 136°
2026-05-06 19:32 52.22438 4.49891 2008 ft 225 kts 134°
2026-05-06 19:33 52.21572 4.51912 2013 ft 215 kts 103°
2026-05-06 19:33 52.21538 4.54262 2009 ft 207 kts 71°
2026-05-06 19:33 52.22193 4.56336 2018 ft 206 kts 57°
2026-05-06 19:33 52.22937 4.58259 2001 ft 189 kts 56°
2026-05-06 19:34 52.23593 4.59947 2022 ft 163 kts 56°
2026-05-06 19:34 52.24179 4.61459 1875 ft 155 kts 56°
2026-05-06 19:34 52.24734 4.62894 1609 ft 142 kts 56°
2026-05-06 19:34 52.25242 4.64209 1394 ft 133 kts 57°
2026-05-06 19:35 52.25726 4.65461 1203 ft 129 kts 56°
2026-05-06 19:35 52.26193 4.66671 1039 ft 122 kts 55°
2026-05-06 19:35 52.26633 4.67813 850 ft 117 kts 55°
2026-05-06 19:35 52.27065 4.68932 729 ft 115 kts 53°
2026-05-06 19:36 52.27499 4.70057 583 ft 118 kts 54°
2026-05-06 19:36 52.27930 4.71178 406 ft 116 kts 51°
2026-05-06 19:36 52.28367 4.72312 252 ft 119 kts 54°
2026-05-06 19:36 52.28807 4.73455 82 ft 120 kts 54°
2026-05-06 19:37 52.29233 4.74556 2 ft 104 kts 57°
2026-05-06 19:37 52.29467 4.75174 -5 ft 26 kts 58°
2026-05-06 19:37 52.29547 4.75344 -3 ft 13 kts 29°
2026-05-06 19:37 52.29605 4.75362 -1 ft 12 kts 353°
2026-05-06 19:38 52.29661 4.75321 -2 ft 0 kts 327°
2026-05-06 19:39 52.29664 4.75317 -2 ft 1 kts 327°
2026-05-06 19:39 52.29673 4.75308 -2 ft 2 kts 327°
2026-05-06 19:39 52.29682 4.75299 -2 ft 2 kts 328°
2026-05-06 19:40 52.29741 4.75275 -2 ft 12 kts 358°
2026-05-06 19:40 52.29826 4.75286 -2 ft 13 kts 31°
2026-05-06 19:40 52.29873 4.75422 -2 ft 14 kts 58°
2026-05-06 19:40 52.29913 4.75528 -2 ft 12 kts 57°
2026-05-06 19:41 52.29963 4.75657 -2 ft 15 kts 58°
2026-05-06 19:41 52.30023 4.75811 -2 ft 17 kts 58°
2026-05-06 19:41 52.30020 4.75952 -2 ft 13 kts 131°
2026-05-06 19:41 52.30027 4.76082 -3 ft 13 kts 58°
2026-05-06 19:42 52.30082 4.76221 -2 ft 16 kts 58°
2026-05-06 19:42 52.30144 4.76385 -2 ft 18 kts 58°
2026-05-06 19:42 52.30215 4.76567 -2 ft 20 kts 57°
2026-05-06 19:42 52.30283 4.76746 -3 ft 18 kts 58°
2026-05-06 19:43 52.30354 4.76931 -3 ft 20 kts 57°
2026-05-06 19:43 52.30428 4.77124 -3 ft 16 kts 59°
2026-05-06 19:43 52.30487 4.77276 -3 ft 15 kts 58°
2026-05-06 19:43 52.30548 4.77438 -2 ft 18 kts 58°
2026-05-06 19:44 52.30618 4.77569 -2 ft 16 kts 26°
2026-05-06 19:44 52.30735 4.77595 -2 ft 18 kts
2026-05-06 19:44 52.30868 4.77608 -2 ft 20 kts
2026-05-06 19:44 52.30993 4.77618 -2 ft 14 kts
2026-05-06 19:45 52.31099 4.77628 -2 ft 16 kts
2026-05-06 19:45 52.31219 4.77640 -2 ft 18 kts
2026-05-06 19:45 52.31352 4.77655 -2 ft 20 kts
2026-05-06 19:45 52.31477 4.77614 -2 ft 19 kts 326°
2026-05-06 19:46 52.31566 4.77447 -2 ft 15 kts 295°
2026-05-06 19:46 52.31576 4.77274 -3 ft 15 kts 266°
2026-05-06 19:46 52.31570 4.77111 -3 ft 14 kts 266°
2026-05-06 19:46 52.31565 4.76961 -2 ft 13 kts 270°
2026-05-06 19:47 52.31560 4.76829 -2 ft 16 kts 266°
2026-05-06 19:47 52.31554 4.76656 -2 ft 15 kts 267°
2026-05-06 19:47 52.31549 4.76499 -2 ft 13 kts 267°
2026-05-06 19:47 52.31545 4.76357 -2 ft 12 kts 265°
2026-05-06 19:48 52.31540 4.76227 -2 ft 11 kts 267°
2026-05-06 19:48 52.31535 4.76071 -2 ft 16 kts 267°
2026-05-06 19:48 52.31529 4.75913 -2 ft 13 kts 266°
2026-05-06 19:48 52.31524 4.75770 -2 ft 12 kts 266°
2026-05-06 19:49 52.31520 4.75635 -2 ft 12 kts 267°
2026-05-06 19:49 52.31507 4.75482 -2 ft 11 kts 235°
2026-05-06 19:49 52.31440 4.75468 -2 ft 10 kts 176°
2026-05-06 19:49 52.31377 4.75474 -2 ft 9 kts 176°
2026-05-06 19:50 52.31318 4.75479 -2 ft 8 kts 176°
2026-05-06 19:50 52.31287 4.75490 -2 ft 4 kts 135°
2026-05-06 19:50 52.31284 4.75560 -2 ft 4 kts 87°
2026-05-06 19:50 52.31285 4.75581 -2 ft 0 kts 87°